DW5856 Weather Reports


Display with metric or nautical units.
time (UTC)temp
F
wind
direction
speed
MPH
gust
MPH
rain 1hr
in
rain 24hr
in
rain mn
in
humidity
%
barometer
mb
20260506213042 43 157 4.0 12.0 0.00 0.31 0.23 58 1020.3
20260506211541 43 176 6.0 11.0 0.00 0.31 0.23 63 1020.5
20260506210052 42 126 2.0 8.0 0.00 0.31 0.23 60 1020.6
20260506204545 42 153 2.0 13.0 0.00 0.34 0.23 55 1020.8
20260506203041 43 159 3.0 10.0 0.00 0.34 0.23 66 1021.1
20260506201539 42 182 3.0 10.0 0.00 0.34 0.23 67 1021.2
20260506200039 41 188 5.0 9.0 0.00 0.34 0.23 71 1021.4
20260506194533 42 117 2.0 11.0 0.00 0.36 0.23 69 1021.6
20260506193037 43 183 2.0 6.0 0.00 0.36 0.23 68 1021.8
20260506191528 41 267 1.0 3.0 0.00 0.36 0.23 67 1022.0
20260506190030 40 292 1.0 4.0 0.00 0.42 0.23 68 1022.2
20260506184535 41 292 0.0 2.0 0.00 0.42 0.23 61 1022.3
20260506183025 41 292 2.0 4.0 0.00 0.42 0.23 62 1022.5
20260506181536 40 334 0.0 0.0 0.02 0.42 0.23 66 1022.7
20260506180026 40 334 0.0 4.0 0.05 0.51 0.23 61 1022.8
20260506174523 41 355 0.0 2.0 0.10 0.51 0.23 63 1022.7
20260506173020 41 355 0.0 0.0 0.10 0.51 0.23 68 1022.7
20260506171519 37 355 2.0 5.0 0.09 0.49 0.21 72 1022.7
20260506170024 38 17 3.0 5.0 0.09 0.60 0.18 70 1022.6
20260506164532 36 309 2.0 5.0 0.06 0.55 0.13 74 1022.8
20260506163013 35 333 0.0 7.0 0.08 0.55 0.13 78 1022.6
20260506161504 34 311 4.0 8.0 0.09 0.54 0.12 80 1022.1
20260506160127 34 309 5.0 8.0 0.08 0.52 0.10 82 1022.2
20260506154559 33 319 6.0 8.0 0.05 0.62 0.07 84 1022.2
20260506153056 33 326 6.0 12.0 0.04 0.60 0.05 85 1022.1
20260506151555 32 36 0.0 0.0 0.02 0.57 0.03 86 1021.9
20260506150101 31 38 0.0 0.0 0.01 0.56 0.02 88 1021.9
20260506144549 31 38 0.0 0.0 0.01 0.63 0.02 90 1021.8
20260506143048 31 38 0.0 0.0 0.00 0.62 0.01 90 1021.8
20260506141546 30 38 0.0 0.0 0.00 0.62 0.01 91 1021.6
20260506140046 30 38 0.0 0.0 0.00 0.62 0.01 91 1021.6
20260506134543 30 38 0.0 0.0 0.00 0.62 0.01 92 1021.3
20260506133054 30 39 0.0 0.0 0.01 0.62 0.01 93 1021.2
20260506131540 30 39 0.0 0.0 0.01 0.62 0.01 92 1021.0
20260506130039 30 39 0.0 0.0 0.01 0.62 0.01 93 1020.7
20260506124536 30 40 0.0 0.0 0.01 0.62 0.01 93 1020.4
20260506123035 30 40 0.0 0.0 0.00 0.61 0.00 93 1020.2
20260506121532 30 40 0.0 0.0 0.00 0.61 0.00 93 1020.0
20260506120049 30 40 0.0 0.0 0.00 0.64 0.00 92 1020.0
20260506114526 30 40 0.0 0.0 0.00 0.64 0.00 92 1019.9
20260506113022 30 40 0.0 0.0 0.00 0.64 0.00 92 1019.6
20260506111516 31 40 0.0 0.0 0.00 0.64 0.00 92 1019.4
20260506110015 31 40 0.0 0.0 0.00 0.69 0.00 93 1019.3
20260506104526 31 40 0.0 0.0 0.00 0.69 0.00 93 1019.2
20260506103033 31 40 0.0 0.0 0.00 0.69 0.00 93 1018.9
20260506101512 31 40 0.0 0.0 0.00 0.69 0.00 93 1019.1
20260506100010 31 40 0.0 0.0 0.00 0.73 0.00 93 1018.7
20260506094511 31 40 0.0 0.0 0.00 0.73 0.00 93 1019.0
20260506093016 31 40 0.0 0.0 0.00 0.73 0.00 94 1018.9
20260506091505 31 40 0.0 0.0 0.00 0.73 0.00 94 1018.7
20260506090005 31 40 0.0 0.0 0.00 0.81 0.00 94 1018.7
20260506084502 31 40 0.0 0.0 0.00 0.81 0.00 94 1018.7
20260506083002 31 40 0.0 0.0 0.00 0.81 0.00 94 1018.7
20260506081602 31 40 0.0 0.0 0.00 0.81 0.00 94 1018.8
20260506080104 32 40 0.0 0.0 0.00 0.81 0.00 94 1018.6
20260506073056 31 40 0.0 0.0 0.00 0.84 0.00 94 1018.7
20260506071557 31 40 0.0 0.0 0.00 0.84 0.00 94 1018.6
20260506061546 32 40 3.0 5.0 0.00 0.86 0.00 94 1018.2
20260506044538 32 360 1.0 2.0 0.00 0.86 0.86 94 1016.7
20260506043035 32 360 1.0 3.0 0.00 0.86 0.86 94 1016.7
20260506041534 32 360 1.0 2.0 0.00 0.86 0.86 94 1016.6
20260506040035 32 360 1.0 2.0 0.00 0.86 0.86 94 1016.3
20260506034532 32 360 2.0 3.0 0.00 0.86 0.86 94 1016.1
20260506033027 32 360 0.0 0.0 0.00 0.86 0.86 94 1015.9
20260506031525 32 360 0.0 1.0 0.00 0.86 0.86 93 1015.5
20260506030027 32 360 0.0 2.0 0.00 0.86 0.86 93 1015.5
20260506024521 32 360 1.0 3.0 0.00 0.86 0.86 94 1015.1
20260506023033 32 360 2.0 3.0 0.00 0.86 0.86 93 1014.4
20260506021525 32 360 2.0 3.0 0.01 0.86 0.86 93 1014.2
20260506020014 32 360 0.0 4.0 0.01 0.87 0.86 93 1013.9
20260506014515 32 360 1.0 4.0 0.01 0.87 0.86 93 1013.9
20260506013013 32 360 2.0 4.0 0.01 0.87 0.86 93 1013.5
20260506011508 32 360 2.0 3.0 0.01 0.86 0.85 93 1013.1
20260506010012 32 360 2.0 4.0 0.01 0.93 0.85 93 1013.0
20260506004511 32 360 3.0 6.0 0.02 0.93 0.85 93 1013.2
20260506003006 32 11 4.0 7.0 0.02 0.93 0.85 93 1012.9
20260506001502 32 27 6.0 9.0 0.01 0.92 0.84 93 1012.7
20260506000101 32 5 3.0 6.0 0.01 0.92 0.84 93 1012.4
20260505234559 32 11 4.0 7.0 0.00 0.91 0.83 92 1012.0
20260505233105 32 16 4.0 6.0 0.01 0.91 0.83 92 1012.0
20260505231609 32 344 4.0 6.0 0.01 0.91 0.83 92 1012.2
20260505230054 32 344 3.0 7.0 0.02 0.91 0.83 92 1011.9
20260505224556 33 344 5.0 9.0 0.03 0.91 0.83 92 1011.8
20260505223053 33 346 6.0 9.0 0.03 0.90 0.82 92 1011.5
20260505221550 33 29 6.0 9.0 0.03 0.90 0.82 92 1011.5
20260505220054 32 5 5.0 8.0 0.03 0.89 0.81 92 1011.1
20260505214555 32 355 7.0 11.0 0.02 0.88 0.80 92 1011.2